Regional Weather Roundup
Issued by NWS Green Bay, WI

Home | Current Version | Previous Version | Graphics & Text | Print | Product List | Glossary Off
Versions: 1 2 3 4 5 6 7 8 9 10 11 12 13 14 15 16 17 18 19 20 21 22 23 24 25 26 27 28 29 30 31 32 33 34 35 36 37 38 39 40 41 42 43 44 45 46 47 48 49 50

000
ASUS43 KGRB 240900
RWRGRB

NORTH-CENTRAL AND NORTHEAST WISCONSIN REGIONAL WEATHER ROUNDUP
NATIONAL WEATHER SERVICE GREEN BAY WI
400 AM CDT WED AUG 24 2016

WIZ005-009-010>012-018-019-241000-
NORTH CENTRAL WISCONSIN

CITY           SKY/WX    TMP DP  RH WIND       PRES   REMARKS
IRONWOOD       CLOUDY    69  63  81 S6        29.87S
MANITOWISH WTR NOT AVBL
ARBOR VITAE    NOT AVBL
EAGLE RIVER    NOT AVBL
LAND O LAKES   NOT AVBL
RHINELANDER    CLOUDY    65  65 100 SE7       29.91F
PHILLIPS       CLOUDY    66  65  95 S7        29.87S
ANTIGO         NOT AVBL
TOMAHAWK       NOT AVBL
MERRILL        NOT AVBL
$$

WIZ013-073-241000-
NORTHEAST WISCONSIN

CITY           SKY/WX    TMP DP  RH WIND       PRES   REMARKS
IRON MOUNTAIN  LGT RAIN  66  61  84 S12G18    29.92F
MARINETTE      RAIN     N/A N/A N/A SW8       29.95F
$$

WIZ017-030-035>037-045-241000-
CENTRAL WISCONSIN

CITY           SKY/WX    TMP DP  RH WIND       PRES   REMARKS
MEDFORD        NOT AVBL
WAUSAU         CLOUDY    66  65  96 SE8       29.86F
MOSINEE        NOT AVBL
MARSHFIELD     LGT RAIN  67  64  90 S13       29.85F
WISC RAPIDS    LGT RAIN  68  68 100 S9G20     29.88F
STEVENS POINT  NOT AVBL
WAUPACA        NOT AVBL
SHAWANO        NOT AVBL
CLINTONVILLE   RAIN      66  64  94 SE10      29.90F
WAUTOMA        RAIN      68  68 100 CALM      29.90F FOG
$$

WIZ038-039-048-051-241000-
FOX VALLEY

CITY           SKY/WX    TMP DP  RH WIND       PRES   REMARKS
NWS GREEN BAY  TSTM      66  66 100 E5        29.94F FOG
APPLETON       NOT AVBL
OSHKOSH        CLOUDY    70  66  87 S12       29.90F
FOND DU LAC    CLOUDY    71  66  84 S14       29.92F
$$

WIZ022-050-052-241000-
EAST CENTRAL WISCONSIN

CITY           SKY/WX    TMP DP  RH WIND       PRES   REMARKS
EPHRAIM        NOT AVBL
WASHINGTON ISL NOT AVBL
STURGEON BAY   HVY RAIN  67  65  93 S12         N/A
MANITOWOC      NOT AVBL
SHEBOYGAN      MOCLDY    70  63  78 S13       29.95F
$$

LMZ563-521-522-541>543-241000-
LAKESHORE

STATION/POSITION TIME  TEMP    WIND        PRES    VSBY  WAVE
                       AIR SEA DIR/SP/G                  HT/PER
                 (UTC) (F)     (DEG/KT/KT) (MB)    (MI)  (FT/S)
SHEBOYGAN LKSHOR 0800   64     190/ 18/ 19 1017.0R
KEWAUNEE LKSHORE 0800   64     190/  8/ 11 1014.6F
NORTHPORT PIER   0800   69     160/  5/ 11 1015.2R
N MID LAKE BUOY  0750   71 70  190/ 16/ 19 1014.4F         6/ 6
SISTER BAY LKSHO 0807   69     160/ 16/ 19   N/A
CHAMBERS ISLAND  0800   72     170/  8/ 15 1015.2R
MENOMINEE LKSHOR 0800   71     200/  9/ 13 1014.6R
$$



USA.gov is the U.S. government's official web portal to all federal, state and local government web resources and services.